Location: Marcé
(47.5801°N, 0.3280°W)
Time: 22:40:56
(UTC+01:00)

S-56A Canister/Altair - Pass Details

Date: 08 December 2021
Orbit: 633 x 2499 km, 38.9° (Epoch: 16 January)

Event Time Altitude Azimuth Distance (km) Brightness Sun altitude
Rises 02:02:12 0° 258° (WSW) 5,150 - -61.6°
Reaches altitude 10° 02:06:13 10° 253° (WSW) 3,850 - -61.2°
Maximum altitude 02:14:58 44° 186° (S) 1,584 - -60.2°
Drops below altitude 10° 02:20:55 10° 115° (ESE) 2,622 - -59.6°
Sets 02:23:10 0° 109° (ESE) 3,389 - -59.3°
